Weather observations for the past three days for
Kuparuk, Ugnu-Kuparuk Airport
| Date | Time (akdt) | Wind (mph) | Vis. (mi.) | Weather | Sky Cond. | Temperature (ºF) | Relative Humidity | Wind Chill (°F) | Heat Index (°F) | Pressure | Precipitation (in) | ||||||
|---|---|---|---|---|---|---|---|---|---|---|---|---|---|---|---|---|---|
| Air | Dwpt | 6 hour | altimeter (in) | sea level (mb) | 1 hr | 3 hr | 6 hr | ||||||||||
| Max. | Min. | ||||||||||||||||
| 10 | 06:45 | NE 22 | 1.50 | Blowing Snow and Breezy | FEW003 FEW050 | 5 | 3.2 | 92% | -15 | 29.92 | 0.0 | ||||||
| 10 | 05:45 | NE 22 | 4.00 | Blowing Snow and Breezy | FEW050 | 6.8 | 3.2 | 85% | -13 | 29.92 | 0.0 | ||||||
| 10 | 04:45 | NE 22 | 4.00 | Blowing Snow and Breezy | FEW050 | 6.8 | 5 | 92% | -13 | 29.92 | 0.0 | ||||||
| 10 | 03:45 | NE 23 | 4.00 | Blowing Snow and Breezy | FEW050 | 8.6 | 5 | 85% | -11 | 29.92 | 0.0 | ||||||
| 09 | 18:45 | NE 24 | 3.00 | Blowing Snow Fog/Mist and Breezy | OVC008 | 19.4 | 19.4 | 100% | 3 | 29.95 | 0.0 | ||||||
| 09 | 17:45 | NE 25 | 4.00 | Blowing Snow Fog/Mist and Breezy | OVC008 | 19.4 | 17.6 | 93% | 3 | 29.95 | 0.0 | ||||||
| 09 | 16:45 | NE 23 | 7.00 | Blowing Snow and Breezy | OVC008 | 21.2 | 19.4 | 93% | 6 | 29.96 | 0.0 | ||||||
| 09 | 15:45 | NE 25 | 7.00 | Blowing Snow and Breezy | OVC009 | 21.2 | 19.4 | 93% | 5 | 29.97 | 0.0 | ||||||
| 09 | 14:45 | NE 25 | 3.00 | Blowing Snow and Breezy | OVC008 | 19.4 | 17.6 | 93% | 3 | 29.97 | 0.0 | ||||||
| 09 | 13:45 | NE 28 | 4.00 | Blowing Snow and Windy | BKN009 OVC033 | 19.4 | 17.6 | 93% | 2 | 29.98 | 0.0 | ||||||
| 09 | 12:45 | NE 25 | 3.00 | Blowing Snow and Breezy | OVC007 | 17.6 | 15.8 | 93% | 0 | 30 | 0.0 | ||||||
| 09 | 11:45 | NE 25 | 5.00 | Low Drifting Snow and Breezy | BKN008 OVC034 | 17.6 | 15.8 | 93% | 0 | 30 | 0.0 | ||||||
| 09 | 10:45 | NE 22 | 7.00 | Low Drifting Snow and Breezy | BKN009 OVC035 | 17.6 | 14 | 86% | 1 | 30.02 | 0.0 | ||||||
| 09 | 09:45 | NE 21 | 3.00 | Low Drifting Snow Fog/Mist and Breezy | OVC008 | 15.8 | 14 | 93% | -0 | 30.03 | 0.0 | ||||||
| 09 | 08:45 | NE 20 | 1.00 | Light Freezing Rain Fog/Mist | OVC006 | 15.8 | 14 | 93% | -0 | 30.03 | 0.0 | ||||||
| 09 | 07:45 | NE 16 | 7.00 | Light Snow | BKN007 | 15.8 | 14 | 93% | 1 | 30.04 | 0.0 | ||||||
| 09 | 06:45 | NE 13 | 7.00 | Light Snow | BKN011 | 15.8 | 12.2 | 86% | 3 | 30.06 | 0.0 | ||||||
| 09 | 05:45 | NE 12 | 7.00 | Light Snow | BKN011 | 14 | 12.2 | 92% | 1 | 30.07 | 0.0 | ||||||
| 09 | 04:45 | NE 10 | 7.00 | Light Snow | BKN015 | 15.8 | 12.2 | 86% | 4 | 30.08 | 0.0 | ||||||
| 09 | 03:45 | E 14 | 7.00 | Light Snow | BKN018 | 15.8 | 12.2 | 86% | 2 | 30.09 | 0.0 | ||||||
| 08 | 18:45 | NE 12 | 7.00 | Light Snow | BKN009 OVC027 | 17.6 | 14 | 86% | 6 | 30.14 | 0.0 | ||||||
| 08 | 17:45 | E 10 | 10.00 | Light Snow | BKN009 OVC026 | 17.6 | 14 | 86% | 7 | 30.14 | 0.0 | ||||||
| 08 | 16:45 | E 12 | 10.00 | Overcast | BKN008 OVC023 | 17.6 | 14 | 86% | 6 | 30.15 | 0.0 | ||||||
| 08 | 15:45 | NE 10 | 10.00 | Mostly Cloudy | SCT008 BKN022 | 17.6 | 14 | 86% | 7 | 30.16 | 0.0 | ||||||
| 08 | 14:45 | NE 9 | 10.00 | Mostly Cloudy | SCT008 BKN023 | 17.6 | 14 | 86% | 7 | 30.16 | 0.0 | ||||||
| 08 | 13:45 | NE 8 | 10.00 | Mostly Cloudy | BKN008 | 17.6 | 14 | 86% | 8 | 30.17 | 0.0 | ||||||
| 08 | 12:45 | NE 9 | 10.00 | Mostly Cloudy | SCT007 BKN060 | 17.6 | 14 | 86% | 7 | 30.18 | 0.0 | ||||||
| 08 | 11:45 | NE 7 | 10.00 | Mostly Cloudy | SCT SCT050 BKN070 | 17.6 | 15.8 | 93% | 9 | 30.18 | 0.0 | ||||||
| 08 | 10:45 | NE 7 | 10.00 | Mostly Cloudy | SCT029 SCT065 BKN090 | 17.6 | 15.8 | 93% | 9 | 30.19 | 0.0 | ||||||
| 08 | 09:45 | NE 6 | 7.00 | Mostly Cloudy | SCT009 BKN050 BKN110 | 17.6 | 15.8 | 93% | 10 | 30.19 | 0.0 | ||||||
| 08 | 08:45 | NE 6 | 7.00 | Light Snow | BKN005 | 17.6 | 15.8 | 93% | 10 | 30.2 | 0.0 | ||||||
| 08 | 07:45 | NW 6 | 7.00 | Mostly Cloudy | BKN005 | 17.6 | 15.8 | 93% | 10 | 30.21 | 0.0 | ||||||
| 08 | 06:45 | NW 5 | 7.00 | Light Snow | BKN008 | 17.6 | 15.8 | 93% | 11 | 30.22 | 0.0 | ||||||
| 08 | 05:45 | NW 3 | 3.00 | Light Snow Fog/Mist | OVC004 | 17.6 | 15.8 | 93% | 30.23 | 0.0 | |||||||
| 08 | 04:45 | W 6 | 2.00 | Light Snow Fog/Mist | OVC003 | 17.6 | 17.6 | 100% | 10 | 30.23 | 0.0 | ||||||
| 08 | 03:45 | W 7 | 3.00 | Fog/Mist | OVC003 | 17.6 | 17.6 | 100% | 9 | 30.23 | 0.0 | ||||||
| 07 | 18:45 | W 3 | 10.00 | Overcast | OVC009 | 19.4 | 15.8 | 86% | 30.26 | 0.0 | |||||||
| 07 | 17:45 | W 5 | 10.00 | Overcast | OVC008 | 19.4 | 15.8 | 86% | 14 | 30.26 | 0.0 | ||||||
| 07 | 16:45 | W 5 | 10.00 | Overcast | OVC009 | 19.4 | 15.8 | 86% | 14 | 30.26 | 0.0 | ||||||
| 07 | 15:45 | W 8 | 10.00 | Overcast | OVC009 | 19.4 | 15.8 | 86% | 10 | 30.26 | 0.0 | ||||||
| 07 | 14:45 | W 9 | 10.00 | Overcast | OVC009 | 19.4 | 15.8 | 86% | 10 | 30.25 | 0.0 | ||||||
| 07 | 13:45 | W 8 | 10.00 | Overcast | OVC007 | 19.4 | 15.8 | 86% | 10 | 30.24 | 0.0 | ||||||
| 07 | 12:45 | W 9 | 10.00 | Overcast | OVC007 | 17.6 | 15.8 | 93% | 7 | 30.24 | 0.0 | ||||||
| 07 | 11:45 | NW 7 | 10.00 | Overcast | OVC006 | 17.6 | 14 | 86% | 9 | 30.23 | 0.0 | ||||||
| 07 | 10:45 | W 10 | 10.00 | Overcast | OVC005 | 17.6 | 15.8 | 93% | 7 | 30.22 | 0.0 | ||||||
| 07 | 09:45 | W 10 | 10.00 | Overcast | OVC005 | 17.6 | 15.8 | 93% | 7 | 30.21 | 0.0 | ||||||
| 07 | 08:45 | NW 9 | 10.00 | Mostly Cloudy | BKN006 | 17.6 | 15.8 | 93% | 7 | 30.2 | 0.0 | ||||||
| 07 | 07:45 | W 10 | 10.00 | Mostly Cloudy | BKN008 | 17.6 | 15.8 | 93% | 7 | 30.19 | 0.0 | ||||||
| Date | Time (akdt) | Wind (mph) | Vis. (mi.) | Weather | Sky Cond. | Air | Dwpt | Max. | Min. | Relative Humidity | Wind Chill (°F) | Heat Index (°F) | altimeter (in) | sea level (mb) | 1 hr | 3 hr | 6 hr |
| 6 hour | |||||||||||||||||
| Temperature (ºF) | Pressure | Precipitation (in) | |||||||||||||||